Location: Cedar Springs
(43.2230°N, 85.5510°W)
Time: 15:26:00
(UTC-04:00)

Cosmos 2278 Rocket - Visible Passes

Search period start: 16 April 2014 00:00
Search period end: 26 April 2014 00:00
Orbit: 842 x 845 km, 71.0° (Epoch: 15 April)

Date Brightness Start Highest point End Pass type
(mag) Time Alt. Az. Time Alt. Az. Time Alt. Az.
16 Apr 3.8 01:52:47 29° NE 01:52:47 29° NE 01:55:27 10° NNE visible
16 Apr 3.9 03:34:37 22° NW 03:34:37 22° NW 03:38:48 10° N visible
17 Apr 3.9 01:38:24 28° NE 01:38:24 28° NE 01:41:00 10° NNE visible
17 Apr 3.9 03:20:14 23° NW 03:20:14 23° NW 03:24:24 10° N visible
18 Apr 3.9 01:23:59 27° NE 01:23:59 27° NE 01:26:32 10° NNE visible
18 Apr 3.9 03:05:49 24° NW 03:05:49 24° NW 03:10:00 10° N visible
19 Apr 3.8 01:09:33 27° NE 01:09:33 27° NE 01:12:04 10° NNE visible
19 Apr 3.9 02:51:22 24° NW 02:51:22 24° NW 02:55:35 10° N visible
20 Apr 3.8 00:55:04 27° NE 00:55:04 27° NE 00:57:36 10° NNE visible
20 Apr 3.8 02:36:53 25° NW 02:36:53 25° NW 02:41:11 10° N visible
21 Apr 3.7 00:40:33 27° NE 00:40:33 27° NE 00:43:08 10° NE visible
21 Apr 3.8 02:22:22 26° NW 02:22:22 26° NW 02:26:46 10° N visible
22 Apr 3.7 00:25:59 28° NE 00:25:59 28° NE 00:28:40 10° NE visible
22 Apr 3.8 02:07:47 27° NW 02:07:47 27° NW 02:12:22 10° N visible
23 Apr 3.6 00:11:21 29° NE 00:11:21 29° NE 00:14:12 10° NE visible
23 Apr 3.7 01:53:10 28° NW 01:53:10 28° NW 01:57:57 10° N visible
23 Apr 3.4 23:56:40 30° NE 23:56:40 30° NE 23:59:44 10° NE visible
24 Apr 3.7 01:38:28 29° WNW 01:38:38 29° NW 01:43:32 10° N visible
24 Apr 3.3 23:41:54 32° ENE 23:41:54 32° ENE 23:45:16 10° NE visible
25 Apr 3.6 01:23:41 30° WNW 01:24:10 30° NW 01:29:07 10° N visible
25 Apr 3.1 23:27:02 35° ENE 23:27:02 35° ENE 23:30:47 10° NE visible
